Year,Month,Day,Hour,Minute,Value (Times are PST for temperature in C)
2019,03,18,00,00,5.20
2019,03,18,00,01,5.20
2019,03,18,00,02,5.20
2019,03,18,00,03,5.20
2019,03,18,00,04,5.20
2019,03,18,00,05,5.20
2019,03,18,00,06,5.20
2019,03,18,00,07,5.20
2019,03,18,00,08,5.10
2019,03,18,00,09,5.10
2019,03,18,00,10,5.10
2019,03,18,00,11,5.10
2019,03,18,00,12,5.10
2019,03,18,00,13,5.10
2019,03,18,00,14,5.00
2019,03,18,00,15,5.00
2019,03,18,00,16,5.00
2019,03,18,00,17,5.00
2019,03,18,00,18,5.00
2019,03,18,00,19,4.90
2019,03,18,00,20,4.90
2019,03,18,00,21,4.90
2019,03,18,00,22,4.90
2019,03,18,00,23,4.90
2019,03,18,00,24,4.90
2019,03,18,00,25,4.90
2019,03,18,00,26,4.90
2019,03,18,00,27,4.90
2019,03,18,00,28,4.90
2019,03,18,00,29,4.90
2019,03,18,00,30,4.90
2019,03,18,00,31,4.90
2019,03,18,00,32,4.90
2019,03,18,00,33,4.90
2019,03,18,00,34,4.90
2019,03,18,00,35,4.90
2019,03,18,00,36,4.90
2019,03,18,00,37,4.90
2019,03,18,00,38,4.90
2019,03,18,00,39,4.90
2019,03,18,00,40,4.90
2019,03,18,00,41,4.80
2019,03,18,00,42,4.80
2019,03,18,00,43,4.80
2019,03,18,00,44,4.80
2019,03,18,00,45,4.70
2019,03,18,00,46,4.70
2019,03,18,00,47,4.70
2019,03,18,00,48,4.70
2019,03,18,00,49,4.60
2019,03,18,00,50,4.60
2019,03,18,00,51,4.60
2019,03,18,00,52,4.60
2019,03,18,00,53,4.60
2019,03,18,00,54,4.60
2019,03,18,00,55,4.60
2019,03,18,00,56,4.50
2019,03,18,00,57,4.50
2019,03,18,00,58,4.50
2019,03,18,00,59,4.50
2019,03,18,01,00,4.50
2019,03,18,01,01,4.50
2019,03,18,01,02,4.50
2019,03,18,01,03,4.60
2019,03,18,01,04,4.60
2019,03,18,01,05,4.60
2019,03,18,01,06,4.60
2019,03,18,01,07,4.60
2019,03,18,01,08,4.60
2019,03,18,01,09,4.60
2019,03,18,01,10,4.50
2019,03,18,01,11,4.50
2019,03,18,01,12,4.50
2019,03,18,01,13,4.50
2019,03,18,01,14,4.50
2019,03,18,01,15,4.50
2019,03,18,01,16,4.50
2019,03,18,01,17,4.60
2019,03,18,01,18,4.60
2019,03,18,01,19,4.60
2019,03,18,01,20,4.60
2019,03,18,01,21,4.60
2019,03,18,01,22,4.60
2019,03,18,01,23,4.60
2019,03,18,01,24,4.70
2019,03,18,01,25,4.70
2019,03,18,01,26,4.70
2019,03,18,01,27,4.70
2019,03,18,01,28,4.60
2019,03,18,01,29,4.60
2019,03,18,01,30,4.60
2019,03,18,01,31,4.50
2019,03,18,01,32,4.50
2019,03,18,01,33,4.50
2019,03,18,01,34,4.40
2019,03,18,01,35,4.40
2019,03,18,01,36,4.40
2019,03,18,01,37,4.40
2019,03,18,01,38,4.40
2019,03,18,01,39,4.40
2019,03,18,01,40,4.30
2019,03,18,01,41,4.30
2019,03,18,01,42,4.30
2019,03,18,01,43,4.30
2019,03,18,01,44,4.30
2019,03,18,01,45,4.20
2019,03,18,01,46,4.20
2019,03,18,01,47,4.20
2019,03,18,01,48,4.20
2019,03,18,01,49,4.20
2019,03,18,01,50,4.10
2019,03,18,01,51,4.10
2019,03,18,01,52,4.10
2019,03,18,01,53,4.10
2019,03,18,01,54,4.10
2019,03,18,01,55,4.00
2019,03,18,01,56,4.00
2019,03,18,01,57,4.00
2019,03,18,01,58,3.90
2019,03,18,01,59,3.90
2019,03,18,02,00,3.90
2019,03,18,02,01,3.90
2019,03,18,02,02,3.80
2019,03,18,02,03,3.80
2019,03,18,02,04,3.80
2019,03,18,02,05,3.80
2019,03,18,02,06,3.80
2019,03,18,02,07,3.70
2019,03,18,02,08,3.70
2019,03,18,02,09,3.70
2019,03,18,02,10,3.70
2019,03,18,02,11,3.70
2019,03,18,02,12,3.70
2019,03,18,02,13,3.60
2019,03,18,02,14,3.60
2019,03,18,02,15,3.60
2019,03,18,02,16,3.60
2019,03,18,02,17,3.60
2019,03,18,02,18,3.60
2019,03,18,02,19,3.60
2019,03,18,02,20,3.60
2019,03,18,02,21,3.50
2019,03,18,02,22,3.50
2019,03,18,02,23,3.50
2019,03,18,02,24,3.50
2019,03,18,02,25,3.50
2019,03,18,02,26,3.50
2019,03,18,02,27,3.60
2019,03,18,02,28,3.60
2019,03,18,02,29,3.70
2019,03,18,02,30,3.70
2019,03,18,02,31,3.70
2019,03,18,02,32,3.70
2019,03,18,02,33,3.70
2019,03,18,02,34,3.70
2019,03,18,02,35,3.70
2019,03,18,02,36,3.70
2019,03,18,02,37,3.70
2019,03,18,02,38,3.70
2019,03,18,02,39,3.60
2019,03,18,02,40,3.60
2019,03,18,02,41,3.60
2019,03,18,02,42,3.60
2019,03,18,02,43,3.60
2019,03,18,02,44,3.60
2019,03,18,02,45,3.60
2019,03,18,02,46,3.60
2019,03,18,02,47,3.60
2019,03,18,02,48,3.70
2019,03,18,02,49,3.70
2019,03,18,02,50,3.70
2019,03,18,02,51,3.80
2019,03,18,02,52,3.80
2019,03,18,02,53,3.80
2019,03,18,02,54,3.80
2019,03,18,02,55,3.80
2019,03,18,02,56,3.80
2019,03,18,02,57,3.70
2019,03,18,02,58,3.70
2019,03,18,02,59,3.70
2019,03,18,03,00,3.70
2019,03,18,03,01,3.70
2019,03,18,03,02,3.70
2019,03,18,03,03,3.60
2019,03,18,03,04,3.60
2019,03,18,03,05,3.60
2019,03,18,03,06,3.60
2019,03,18,03,07,3.60
2019,03,18,03,08,3.60
2019,03,18,03,09,3.60
2019,03,18,03,10,3.60
2019,03,18,03,11,3.60
2019,03,18,03,12,3.60
2019,03,18,03,13,3.60
2019,03,18,03,14,3.60
2019,03,18,03,15,3.60
2019,03,18,03,16,3.60
2019,03,18,03,17,3.50
2019,03,18,03,18,3.50
2019,03,18,03,19,3.50
2019,03,18,03,20,3.40
2019,03,18,03,21,3.40
2019,03,18,03,22,3.40
2019,03,18,03,23,3.40
2019,03,18,03,24,3.40
2019,03,18,03,25,3.40
2019,03,18,03,26,3.30
2019,03,18,03,27,3.30
2019,03,18,03,28,3.30
2019,03,18,03,29,3.30
2019,03,18,03,30,3.30
2019,03,18,03,31,3.30
2019,03,18,03,32,3.30
2019,03,18,03,33,3.30
2019,03,18,03,34,3.20
2019,03,18,03,35,3.20
2019,03,18,03,36,3.20
2019,03,18,03,37,3.20
2019,03,18,03,38,3.20
2019,03,18,03,39,3.20
2019,03,18,03,40,3.20
2019,03,18,03,41,3.20
2019,03,18,03,42,3.10
2019,03,18,03,43,3.10
2019,03,18,03,44,3.10
2019,03,18,03,45,3.10
2019,03,18,03,46,3.10
2019,03,18,03,47,3.10
2019,03,18,03,48,3.10
2019,03,18,03,49,3.20
2019,03,18,03,50,3.20
2019,03,18,03,51,3.20
2019,03,18,03,52,3.20
2019,03,18,03,53,3.20
2019,03,18,03,54,3.20
2019,03,18,03,55,3.20
2019,03,18,03,56,3.20
2019,03,18,03,57,3.20
2019,03,18,03,58,3.20
2019,03,18,03,59,3.20
2019,03,18,04,00,3.20
2019,03,18,04,01,3.10
2019,03,18,04,02,3.10
2019,03,18,04,03,3.10
2019,03,18,04,04,3.10
2019,03,18,04,05,3.10
2019,03,18,04,06,3.10
2019,03,18,04,07,3.10
2019,03,18,04,08,3.10
2019,03,18,04,09,3.10
2019,03,18,04,10,3.10
2019,03,18,04,11,3.20
2019,03,18,04,12,3.20
2019,03,18,04,13,3.20
2019,03,18,04,14,3.30
2019,03,18,04,15,3.30
2019,03,18,04,16,3.30
2019,03,18,04,17,3.30
2019,03,18,04,18,3.30
2019,03,18,04,19,3.30
2019,03,18,04,20,3.30
2019,03,18,04,21,3.30
2019,03,18,04,22,3.30
2019,03,18,04,23,3.30
2019,03,18,04,24,3.30
2019,03,18,04,25,3.30
2019,03,18,04,26,3.30
2019,03,18,04,27,3.30
2019,03,18,04,28,3.30
2019,03,18,04,29,3.30
2019,03,18,04,30,3.30
2019,03,18,04,31,3.30
2019,03,18,04,32,3.30
2019,03,18,04,33,3.30
2019,03,18,04,34,3.30
2019,03,18,04,35,3.30
2019,03,18,04,36,3.30
2019,03,18,04,37,3.30
2019,03,18,04,38,3.30
2019,03,18,04,39,3.30
2019,03,18,04,40,3.30
2019,03,18,04,41,3.30
2019,03,18,04,42,3.30
2019,03,18,04,43,3.30
2019,03,18,04,44,3.30
2019,03,18,04,45,3.20
2019,03,18,04,46,3.30
2019,03,18,04,47,3.30
2019,03,18,04,48,3.30
2019,03,18,04,49,3.30
2019,03,18,04,50,3.30
2019,03,18,04,51,3.30
2019,03,18,04,52,3.30
2019,03,18,04,53,3.30
2019,03,18,04,54,3.20
2019,03,18,04,55,3.20
2019,03,18,04,56,3.20
2019,03,18,04,57,3.10
2019,03,18,04,58,3.10
2019,03,18,04,59,3.00
2019,03,18,05,00,3.00
2019,03,18,05,01,2.90
2019,03,18,05,02,2.90
2019,03,18,05,03,2.90
2019,03,18,05,04,2.90
2019,03,18,05,05,2.80
2019,03,18,05,06,2.80
2019,03,18,05,07,2.80
2019,03,18,05,08,2.70
2019,03,18,05,09,2.70
2019,03,18,05,10,2.60
2019,03,18,05,11,2.60
2019,03,18,05,12,2.60
2019,03,18,05,13,2.60
2019,03,18,05,14,2.60
2019,03,18,05,15,2.60
2019,03,18,05,16,2.60
2019,03,18,05,17,2.60
2019,03,18,05,18,2.60
2019,03,18,05,19,2.60
2019,03,18,05,20,2.60
2019,03,18,05,21,2.60
2019,03,18,05,22,2.60
2019,03,18,05,23,2.60
2019,03,18,05,24,2.60
2019,03,18,05,25,2.60
2019,03,18,05,26,2.70
2019,03,18,05,27,2.70
2019,03,18,05,28,2.70
2019,03,18,05,29,2.70
2019,03,18,05,30,2.70
2019,03,18,05,31,2.70
2019,03,18,05,32,2.70
2019,03,18,05,33,2.70
2019,03,18,05,34,2.70
2019,03,18,05,35,2.60
2019,03,18,05,36,2.60
2019,03,18,05,37,2.60
2019,03,18,05,38,2.60
2019,03,18,05,39,2.60
2019,03,18,05,40,2.60
2019,03,18,05,41,2.50
2019,03,18,05,42,2.50
2019,03,18,05,43,2.50
2019,03,18,05,44,2.40
2019,03,18,05,45,2.40
2019,03,18,05,46,2.40
2019,03,18,05,47,2.40
2019,03,18,05,48,2.40
2019,03,18,05,49,2.40
2019,03,18,05,50,2.50
2019,03,18,05,51,2.50
2019,03,18,05,52,2.50
2019,03,18,05,53,2.50
2019,03,18,05,54,2.50
2019,03,18,05,55,2.50
2019,03,18,05,56,2.60
2019,03,18,05,57,2.60
2019,03,18,05,58,2.60
2019,03,18,05,59,2.70
2019,03,18,06,00,2.70
2019,03,18,06,01,2.70
2019,03,18,06,02,2.60
2019,03,18,06,03,2.60
2019,03,18,06,04,2.60
2019,03,18,06,05,2.60
2019,03,18,06,06,2.50
2019,03,18,06,07,2.50
2019,03,18,06,08,2.50
2019,03,18,06,09,2.40
2019,03,18,06,10,2.40
2019,03,18,06,11,2.40
2019,03,18,06,12,2.40
2019,03,18,06,13,2.40
2019,03,18,06,14,2.30
2019,03,18,06,15,2.30
2019,03,18,06,16,2.30
2019,03,18,06,17,2.30
2019,03,18,06,18,2.30
2019,03,18,06,19,2.30
2019,03,18,06,20,2.30
2019,03,18,06,21,2.30
2019,03,18,06,22,2.30
2019,03,18,06,23,2.20
2019,03,18,06,24,2.20
2019,03,18,06,25,2.20
2019,03,18,06,26,2.20
2019,03,18,06,27,2.20
2019,03,18,06,28,2.10
2019,03,18,06,29,2.20
2019,03,18,06,30,2.20
2019,03,18,06,31,2.20
2019,03,18,06,32,2.20
2019,03,18,06,33,2.20
2019,03,18,06,34,2.20
2019,03,18,06,35,2.20
2019,03,18,06,36,2.20
2019,03,18,06,37,2.20
2019,03,18,06,38,2.20
2019,03,18,06,39,2.20
2019,03,18,06,40,2.20
2019,03,18,06,41,2.20
2019,03,18,06,42,2.10
2019,03,18,06,43,2.10
2019,03,18,06,44,2.10
2019,03,18,06,45,2.10
2019,03,18,06,46,2.10
2019,03,18,06,47,2.10
2019,03,18,06,48,2.10
2019,03,18,06,49,2.10
2019,03,18,06,50,2.20
2019,03,18,06,51,2.20
2019,03,18,06,52,2.20
2019,03,18,06,53,2.20
2019,03,18,06,54,2.20
2019,03,18,06,55,2.20
2019,03,18,06,56,2.20
2019,03,18,06,57,2.20
2019,03,18,06,58,2.20
2019,03,18,06,59,2.30
2019,03,18,07,00,2.30
2019,03,18,07,01,2.30
2019,03,18,07,02,2.30
2019,03,18,07,03,2.30
2019,03,18,07,04,2.40
2019,03,18,07,05,2.40
2019,03,18,07,06,2.40
2019,03,18,07,07,2.40
2019,03,18,07,08,2.40
2019,03,18,07,09,2.40
2019,03,18,07,10,2.40
2019,03,18,07,11,2.40
2019,03,18,07,12,2.40
2019,03,18,07,13,2.40
2019,03,18,07,14,2.40
2019,03,18,07,15,2.40
2019,03,18,07,16,2.30
2019,03,18,07,17,2.30
2019,03,18,07,18,2.30
2019,03,18,07,19,2.30
2019,03,18,07,20,2.30
2019,03,18,07,21,2.30
2019,03,18,07,22,2.30
2019,03,18,07,23,2.20
2019,03,18,07,24,2.20
2019,03,18,07,25,2.20
2019,03,18,07,26,2.20
2019,03,18,07,27,2.20
2019,03,18,07,28,2.30
2019,03,18,07,29,2.30
2019,03,18,07,30,2.30
2019,03,18,07,31,2.30
2019,03,18,07,32,2.30
2019,03,18,07,33,2.30
2019,03,18,07,34,2.30
2019,03,18,07,35,2.30
2019,03,18,07,36,2.30
2019,03,18,07,37,2.30
2019,03,18,07,38,2.30
2019,03,18,07,39,2.30
2019,03,18,07,40,2.30
2019,03,18,07,41,2.30
2019,03,18,07,42,2.30
2019,03,18,07,43,2.30
2019,03,18,07,44,2.30
2019,03,18,07,45,2.30
2019,03,18,07,46,2.30
2019,03,18,07,47,2.30
2019,03,18,07,48,2.30
2019,03,18,07,49,2.30
2019,03,18,07,50,2.30
2019,03,18,07,51,2.30
2019,03,18,07,52,2.30
2019,03,18,07,53,2.20
2019,03,18,07,54,2.20
2019,03,18,07,55,2.20
2019,03,18,07,56,2.20
2019,03,18,07,57,2.20
2019,03,18,07,58,2.20
2019,03,18,07,59,2.20
2019,03,18,08,00,2.20
2019,03,18,08,01,2.20
2019,03,18,08,02,2.20
2019,03,18,08,03,2.20
2019,03,18,08,04,2.20
2019,03,18,08,05,2.20
2019,03,18,08,06,2.20
2019,03,18,08,07,2.20
2019,03,18,08,08,2.20
2019,03,18,08,09,2.20
2019,03,18,08,10,2.20
2019,03,18,08,11,2.20
2019,03,18,08,12,2.20
2019,03,18,08,13,2.20
2019,03,18,08,14,2.20
2019,03,18,08,15,2.30
2019,03,18,08,16,2.30
2019,03,18,08,17,2.40
2019,03,18,08,18,2.50
2019,03,18,08,19,2.60
2019,03,18,08,20,2.60
2019,03,18,08,21,2.70
2019,03,18,08,22,2.90
2019,03,18,08,23,2.90
2019,03,18,08,24,3.00
2019,03,18,08,25,3.10
2019,03,18,08,26,3.20
2019,03,18,08,27,3.30
2019,03,18,08,28,3.30
2019,03,18,08,29,3.40
2019,03,18,08,30,3.50
2019,03,18,08,31,3.60
2019,03,18,08,32,3.70
2019,03,18,08,33,3.70
2019,03,18,08,34,3.80
2019,03,18,08,35,3.80
2019,03,18,08,36,3.90
2019,03,18,08,37,3.90
2019,03,18,08,38,4.00
2019,03,18,08,39,4.00
2019,03,18,08,40,4.10
2019,03,18,08,41,4.20
2019,03,18,08,42,4.20
2019,03,18,08,43,4.20
2019,03,18,08,44,4.30
2019,03,18,08,45,4.30
2019,03,18,08,46,4.40
2019,03,18,08,47,4.50
2019,03,18,08,48,4.50
2019,03,18,08,49,4.60
2019,03,18,08,50,4.60
2019,03,18,08,51,4.70
2019,03,18,08,52,4.70
2019,03,18,08,53,4.80
2019,03,18,08,54,4.80
2019,03,18,08,55,4.80
2019,03,18,08,56,4.80
2019,03,18,08,57,4.80
2019,03,18,08,58,4.80
2019,03,18,08,59,4.80
2019,03,18,09,00,4.80
2019,03,18,09,01,4.90
2019,03,18,09,02,4.90
2019,03,18,09,03,4.90
2019,03,18,09,04,5.00
2019,03,18,09,05,5.00
2019,03,18,09,06,5.10
2019,03,18,09,07,5.20
2019,03,18,09,08,5.20
2019,03,18,09,09,5.20
2019,03,18,09,10,5.30
2019,03,18,09,11,5.40
2019,03,18,09,12,5.40
2019,03,18,09,13,5.50
2019,03,18,09,14,5.60
2019,03,18,09,15,5.60
2019,03,18,09,16,5.70
2019,03,18,09,17,5.80
2019,03,18,09,18,5.90
2019,03,18,09,19,6.00
2019,03,18,09,20,6.20
2019,03,18,09,21,6.30
2019,03,18,09,22,6.40
2019,03,18,09,23,6.50
2019,03,18,09,24,6.70
2019,03,18,09,25,6.80
2019,03,18,09,26,6.90
2019,03,18,09,27,7.00
2019,03,18,09,28,7.10
2019,03,18,09,29,7.10
2019,03,18,09,30,7.20
2019,03,18,09,31,7.20
2019,03,18,09,32,7.30
2019,03,18,09,33,7.40
2019,03,18,09,34,7.50
2019,03,18,09,35,7.50
2019,03,18,09,36,7.60
2019,03,18,09,37,7.70
2019,03,18,09,38,7.80
2019,03,18,09,39,7.90
2019,03,18,09,40,7.90
2019,03,18,09,41,8.00
2019,03,18,09,42,8.10
2019,03,18,09,43,8.20
2019,03,18,09,44,8.30
2019,03,18,09,45,8.30
2019,03,18,09,46,8.40
2019,03,18,09,47,8.50
2019,03,18,09,48,8.60
2019,03,18,09,49,8.60
2019,03,18,09,50,8.70
2019,03,18,09,51,8.80
2019,03,18,09,52,8.90
2019,03,18,09,53,9.00
2019,03,18,09,54,9.10
2019,03,18,09,55,9.20
2019,03,18,09,56,9.30
2019,03,18,09,57,9.40
2019,03,18,09,58,9.50
2019,03,18,09,59,9.60
2019,03,18,10,00,9.70
2019,03,18,10,01,9.80
2019,03,18,10,02,9.90
2019,03,18,10,03,9.90
2019,03,18,10,04,10.00
2019,03,18,10,05,10.00
2019,03,18,10,06,10.00
2019,03,18,10,07,10.10
2019,03,18,10,08,10.10
2019,03,18,10,09,10.10
2019,03,18,10,10,10.20
2019,03,18,10,11,10.30
2019,03,18,10,12,10.30
2019,03,18,10,13,10.40
2019,03,18,10,14,10.50
2019,03,18,10,15,10.60
2019,03,18,10,16,10.70
2019,03,18,10,17,10.70
2019,03,18,10,18,10.80
2019,03,18,10,19,10.90
2019,03,18,10,20,10.90
2019,03,18,10,21,10.90
2019,03,18,10,22,11.00
2019,03,18,10,23,11.00
2019,03,18,10,24,11.00
2019,03,18,10,25,11.00
2019,03,18,10,26,11.00
2019,03,18,10,27,11.10
2019,03,18,10,28,11.10
2019,03,18,10,29,11.10
2019,03,18,10,30,11.10
2019,03,18,10,31,11.10
2019,03,18,10,32,11.10
2019,03,18,10,33,11.10
2019,03,18,10,34,11.10
2019,03,18,10,35,11.10
2019,03,18,10,36,11.10
2019,03,18,10,37,11.00
2019,03,18,10,38,11.00
2019,03,18,10,39,11.00
2019,03,18,10,40,11.00
2019,03,18,10,41,11.00
2019,03,18,10,42,11.00
2019,03,18,10,43,11.00
2019,03,18,10,44,11.10
2019,03,18,10,45,11.10
2019,03,18,10,46,11.10
2019,03,18,10,47,11.10
2019,03,18,10,48,11.10
2019,03,18,10,49,11.10
2019,03,18,10,50,11.10
2019,03,18,10,51,11.10
2019,03,18,10,52,11.10
2019,03,18,10,53,11.20
2019,03,18,10,54,11.20
2019,03,18,10,55,11.20
2019,03,18,10,56,11.30
2019,03,18,10,57,11.40
2019,03,18,10,58,11.50
2019,03,18,10,59,11.50
2019,03,18,11,00,11.60
2019,03,18,11,01,11.70
2019,03,18,11,02,11.70
2019,03,18,11,03,11.80
2019,03,18,11,04,11.80
2019,03,18,11,05,11.80
2019,03,18,11,06,11.90
2019,03,18,11,07,11.90
2019,03,18,11,08,11.90
2019,03,18,11,09,11.90
2019,03,18,11,10,11.90
2019,03,18,11,11,12.00
2019,03,18,11,12,12.00
2019,03,18,11,13,12.00
2019,03,18,11,14,12.00
2019,03,18,11,15,12.00
2019,03,18,11,16,12.10
2019,03,18,11,17,12.10
2019,03,18,11,18,12.10
2019,03,18,11,19,12.10
2019,03,18,11,20,12.20
2019,03,18,11,21,12.20
2019,03,18,11,22,12.20
2019,03,18,11,23,12.10
2019,03,18,11,24,12.20
2019,03,18,11,25,12.20
2019,03,18,11,26,12.20
2019,03,18,11,27,12.20
2019,03,18,11,28,12.20
2019,03,18,11,29,12.20
2019,03,18,11,30,12.20
2019,03,18,11,31,12.20
2019,03,18,11,32,12.20
2019,03,18,11,33,12.20
2019,03,18,11,34,12.20
2019,03,18,11,35,12.20
2019,03,18,11,36,12.20
2019,03,18,11,37,12.20
2019,03,18,11,38,12.20
2019,03,18,11,39,12.20
2019,03,18,11,40,12.20
2019,03,18,11,41,12.20
2019,03,18,11,42,12.20
2019,03,18,11,43,12.20
2019,03,18,11,44,12.20
2019,03,18,11,45,12.30
2019,03,18,11,46,12.30
2019,03,18,11,47,12.30
2019,03,18,11,48,12.20
2019,03,18,11,49,12.20
2019,03,18,11,50,12.20
2019,03,18,11,51,12.20
2019,03,18,11,52,12.20
2019,03,18,11,53,12.30
2019,03,18,11,54,12.30
2019,03,18,11,55,12.30
2019,03,18,11,56,12.40
2019,03,18,11,57,12.40
2019,03,18,11,58,12.40
2019,03,18,11,59,12.40
2019,03,18,12,00,12.50
2019,03,18,12,01,12.50
2019,03,18,12,02,12.50
2019,03,18,12,03,12.60
2019,03,18,12,04,12.60
2019,03,18,12,05,12.70
2019,03,18,12,06,12.70
2019,03,18,12,07,12.80
2019,03,18,12,08,12.80
2019,03,18,12,09,12.90
2019,03,18,12,10,12.90
2019,03,18,12,11,12.90
2019,03,18,12,12,12.90
2019,03,18,12,13,12.90
2019,03,18,12,14,12.90
2019,03,18,12,15,12.90
2019,03,18,12,16,12.90
2019,03,18,12,17,12.90
2019,03,18,12,18,12.90
2019,03,18,12,19,12.90
2019,03,18,12,20,13.00
2019,03,18,12,21,13.10
2019,03,18,12,22,13.20
2019,03,18,12,23,13.20
2019,03,18,12,24,13.30
2019,03,18,12,25,13.40
2019,03,18,12,26,13.40
2019,03,18,12,27,13.50
2019,03,18,12,28,13.60
2019,03,18,12,29,13.60
2019,03,18,12,30,13.70
2019,03,18,12,31,13.70
2019,03,18,12,32,13.60
2019,03,18,12,33,13.60
2019,03,18,12,34,13.70
2019,03,18,12,35,13.70
2019,03,18,12,36,13.70
2019,03,18,12,37,13.80
2019,03,18,12,38,13.80
2019,03,18,12,39,13.80
2019,03,18,12,40,13.80
2019,03,18,12,41,13.80
2019,03,18,12,42,13.80
2019,03,18,12,43,13.80
2019,03,18,12,44,13.80
2019,03,18,12,45,13.90
2019,03,18,12,46,13.90
2019,03,18,12,47,13.90
2019,03,18,12,48,13.80
2019,03,18,12,49,13.90
2019,03,18,12,50,13.90
2019,03,18,12,51,13.90
2019,03,18,12,52,13.90
2019,03,18,12,53,13.90
2019,03,18,12,54,13.90
2019,03,18,12,55,13.90
2019,03,18,12,56,14.00
2019,03,18,12,57,14.00
2019,03,18,12,58,14.10
2019,03,18,12,59,14.10
2019,03,18,13,00,14.00
2019,03,18,13,01,14.00
2019,03,18,13,02,14.00
2019,03,18,13,03,14.00
2019,03,18,13,04,14.10
2019,03,18,13,05,14.10
2019,03,18,13,06,14.10
2019,03,18,13,07,14.10
2019,03,18,13,08,14.10
2019,03,18,13,09,14.10
2019,03,18,13,10,14.00
2019,03,18,13,11,14.00
2019,03,18,13,12,13.90
2019,03,18,13,13,13.90
2019,03,18,13,14,14.00
2019,03,18,13,15,14.00
2019,03,18,13,16,14.00
2019,03,18,13,17,14.00
2019,03,18,13,18,13.90
2019,03,18,13,19,13.90
2019,03,18,13,20,13.90
2019,03,18,13,21,13.90
2019,03,18,13,22,13.90
2019,03,18,13,23,14.00
2019,03,18,13,24,14.00
2019,03,18,13,25,14.00
2019,03,18,13,26,14.10
2019,03,18,13,27,14.00
2019,03,18,13,28,14.00
2019,03,18,13,29,13.90
2019,03,18,13,30,13.90
2019,03,18,13,31,13.80
2019,03,18,13,32,13.80
2019,03,18,13,33,13.90
2019,03,18,13,34,13.90
2019,03,18,13,35,13.90
2019,03,18,13,36,13.90
2019,03,18,13,37,14.00
2019,03,18,13,38,14.00
2019,03,18,13,39,14.10
2019,03,18,13,40,14.10
2019,03,18,13,41,14.10
2019,03,18,13,42,14.10
2019,03,18,13,43,14.20
2019,03,18,13,44,14.20
2019,03,18,13,45,14.20
2019,03,18,13,46,14.10
2019,03,18,13,47,14.10
2019,03,18,13,48,14.10
2019,03,18,13,49,14.10
2019,03,18,13,50,14.10
2019,03,18,13,51,14.10
2019,03,18,13,52,14.10
2019,03,18,13,53,14.10
2019,03,18,13,54,14.10
2019,03,18,13,55,14.10
2019,03,18,13,56,14.00
2019,03,18,13,57,13.90
2019,03,18,13,58,13.90
2019,03,18,13,59,13.80
2019,03,18,14,00,13.80
2019,03,18,14,01,13.80
2019,03,18,14,02,13.90
2019,03,18,14,03,13.90
2019,03,18,14,04,13.90
2019,03,18,14,05,13.90
2019,03,18,14,06,13.90
2019,03,18,14,07,13.90
2019,03,18,14,08,13.90
2019,03,18,14,09,14.00
2019,03,18,14,10,14.00
2019,03,18,14,11,14.10
2019,03,18,14,12,14.20
2019,03,18,14,13,14.20
2019,03,18,14,14,14.20
2019,03,18,14,15,14.30
2019,03,18,14,16,14.40
2019,03,18,14,17,14.50
2019,03,18,14,18,14.60
2019,03,18,14,19,14.70
2019,03,18,14,20,14.70
2019,03,18,14,21,14.70
2019,03,18,14,22,14.60
2019,03,18,14,23,14.60
2019,03,18,14,24,14.60
2019,03,18,14,25,14.60
2019,03,18,14,26,14.60
2019,03,18,14,27,14.60
2019,03,18,14,28,14.60
2019,03,18,14,29,14.70
2019,03,18,14,30,14.70
2019,03,18,14,31,14.80
2019,03,18,14,32,14.80
2019,03,18,14,33,14.90
2019,03,18,14,34,14.90
2019,03,18,14,35,15.00
2019,03,18,14,36,15.00
2019,03,18,14,37,15.00
2019,03,18,14,38,14.90
2019,03,18,14,39,14.90
2019,03,18,14,40,14.90
2019,03,18,14,41,14.80
2019,03,18,14,42,14.90
2019,03,18,14,43,14.90
2019,03,18,14,44,14.90
2019,03,18,14,45,14.90
2019,03,18,14,46,14.90
2019,03,18,14,47,14.90
2019,03,18,14,48,14.90
2019,03,18,14,49,14.90
2019,03,18,14,50,14.90
2019,03,18,14,51,14.90
2019,03,18,14,52,15.00
2019,03,18,14,53,15.00
2019,03,18,14,54,15.00
2019,03,18,14,55,15.10
2019,03,18,14,56,15.20
2019,03,18,14,57,15.20
2019,03,18,14,58,15.30
2019,03,18,14,59,15.30
2019,03,18,15,00,15.30
2019,03,18,15,01,15.40
2019,03,18,15,02,15.40
2019,03,18,15,03,15.50
2019,03,18,15,04,15.50
2019,03,18,15,05,15.50
2019,03,18,15,06,15.60
2019,03,18,15,07,15.60
2019,03,18,15,08,15.70
2019,03,18,15,09,15.70
2019,03,18,15,10,15.80
2019,03,18,15,11,15.80
2019,03,18,15,12,15.80
2019,03,18,15,13,15.90
2019,03,18,15,14,15.90
2019,03,18,15,15,15.90
2019,03,18,15,16,15.90
2019,03,18,15,17,15.90
2019,03,18,15,18,15.90
2019,03,18,15,19,15.80
2019,03,18,15,20,15.80
2019,03,18,15,21,15.80
2019,03,18,15,22,15.80
2019,03,18,15,23,15.80
2019,03,18,15,24,15.80
2019,03,18,15,25,15.80
2019,03,18,15,26,15.80
2019,03,18,15,27,15.80
2019,03,18,15,28,15.80
2019,03,18,15,29,15.90
2019,03,18,15,30,15.90
2019,03,18,15,31,15.90
2019,03,18,15,32,16.00
2019,03,18,15,33,16.00
2019,03,18,15,34,16.00
2019,03,18,15,35,16.10
2019,03,18,15,36,16.00
2019,03,18,15,37,16.00
2019,03,18,15,38,16.00
2019,03,18,15,39,16.00
2019,03,18,15,40,15.90
2019,03,18,15,41,15.80
2019,03,18,15,42,15.80
2019,03,18,15,43,15.70
2019,03,18,15,44,15.70
2019,03,18,15,45,15.70
2019,03,18,15,46,15.70
2019,03,18,15,47,15.70
2019,03,18,15,48,15.60
2019,03,18,15,49,15.60
2019,03,18,15,50,15.60
2019,03,18,15,51,15.70
2019,03,18,15,52,15.70
2019,03,18,15,53,15.80
2019,03,18,15,54,15.90
2019,03,18,15,55,16.00
2019,03,18,15,56,16.10
2019,03,18,15,57,16.10
2019,03,18,15,58,16.10
2019,03,18,15,59,16.10
2019,03,18,16,00,16.10
2019,03,18,16,01,16.10
2019,03,18,16,02,16.10
2019,03,18,16,03,16.10
2019,03,18,16,04,16.00
2019,03,18,16,05,15.90
2019,03,18,16,06,15.80
2019,03,18,16,07,15.80
2019,03,18,16,08,15.80
2019,03,18,16,09,15.80
2019,03,18,16,10,15.80
2019,03,18,16,11,15.80
2019,03,18,16,12,15.80
2019,03,18,16,13,15.80
2019,03,18,16,14,15.70
2019,03,18,16,15,15.70
2019,03,18,16,16,15.60
2019,03,18,16,17,15.60
2019,03,18,16,18,15.60
2019,03,18,16,19,15.60
2019,03,18,16,20,15.70
2019,03,18,16,21,15.70
2019,03,18,16,22,15.70
2019,03,18,16,23,15.80
2019,03,18,16,24,15.80
2019,03,18,16,25,15.80
2019,03,18,16,26,15.80
2019,03,18,16,27,15.80
2019,03,18,16,28,15.80
2019,03,18,16,29,15.80
2019,03,18,16,30,15.80
2019,03,18,16,31,15.80
2019,03,18,16,32,15.80
2019,03,18,16,33,15.80
2019,03,18,16,34,15.80
2019,03,18,16,35,15.80
2019,03,18,16,36,15.80
2019,03,18,16,37,15.80
2019,03,18,16,38,15.80
2019,03,18,16,39,15.80
2019,03,18,16,40,15.80
2019,03,18,16,41,15.80
2019,03,18,16,42,15.80
2019,03,18,16,43,15.80
2019,03,18,16,44,15.80
2019,03,18,16,45,16.00
2019,03,18,16,46,16.00
2019,03,18,16,47,15.90
2019,03,18,16,48,15.90
2019,03,18,16,49,15.80
2019,03,18,16,50,15.80
2019,03,18,16,51,15.80
2019,03,18,16,52,15.80
2019,03,18,16,53,15.70
2019,03,18,16,54,15.70
2019,03,18,16,55,15.70
2019,03,18,16,56,15.70
2019,03,18,16,57,15.70
2019,03,18,16,58,15.70
2019,03,18,16,59,15.70
2019,03,18,17,00,15.70
2019,03,18,17,01,15.80
2019,03,18,17,02,15.80
2019,03,18,17,03,15.80
2019,03,18,17,04,15.80
2019,03,18,17,05,15.80
2019,03,18,17,06,15.80
2019,03,18,17,07,15.80
2019,03,18,17,08,15.80
2019,03,18,17,09,15.90
2019,03,18,17,10,15.90
2019,03,18,17,11,15.90
2019,03,18,17,12,15.90
2019,03,18,17,13,15.90
2019,03,18,17,14,15.90
2019,03,18,17,15,15.90
2019,03,18,17,16,15.80
2019,03,18,17,17,15.80
2019,03,18,17,18,15.80
2019,03,18,17,19,15.90
2019,03,18,17,20,15.90
2019,03,18,17,21,15.90
2019,03,18,17,22,16.00
2019,03,18,17,23,16.00
2019,03,18,17,24,16.10
2019,03,18,17,25,16.10
2019,03,18,17,26,16.10
2019,03,18,17,27,16.20
2019,03,18,17,28,16.20
2019,03,18,17,29,16.20
2019,03,18,17,30,16.20
2019,03,18,17,31,16.20
2019,03,18,17,32,16.20
2019,03,18,17,33,16.20
2019,03,18,17,34,16.20
2019,03,18,17,35,16.30
2019,03,18,17,36,16.30
2019,03,18,17,37,16.30
2019,03,18,17,38,16.30
2019,03,18,17,39,16.40
2019,03,18,17,40,16.50
2019,03,18,17,41,16.50
2019,03,18,17,42,16.60
2019,03,18,17,43,16.60
2019,03,18,17,44,16.70
2019,03,18,17,45,16.70